This demonstration page uses our WeatherBlox Daily Observations layout. Learn more.

Left ArrowRight Arrow

34.74481, -87.66753

Hourly Observations for May 9, 2020

Temp ( °F °C ) Dew Point ( °F °C ) Humidity (%) Winds ( mph kmh ) Pressure ( in mb ) Visibility ( mi km ) Precip ( " mm )
12:53 am 00:53 Clear 51 10.6 41 5 69 69 NNE 6 9 30.17 1022 10 16 0.00 0.00
1:53 am 01:53 Clear 50 10 38 3.3 63 63 NNE 9 15 30.18 1022 10 16 0.00 0.00
2:53 am 02:53 Clear 49 9.4 37 2.8 64 64 VRB 5 7 30.19 1022 10 16 0.00 0.00
3:53 am 03:53 Clear 48 8.9 36 2.2 63 63 NE 7 11 30.19 1022 10 16 0.00 0.00
4:53 am 04:53 Clear 46 7.8 36 2.2 68 68 NNE 5 7 30.20 1023 10 16 0.00 0.00
5:53 am 05:53 Sunny 45 7.2 35 1.7 68 68 NE 3 6 30.23 1024 10 16 0.00 0.00
6:53 am 06:53 Sunny 47 8.3 37 2.8 69 69 N 5 7 30.25 1025 10 16 0.00 0.00
7:53 am 07:53 Sunny 50 10 35 1.7 57 57 NE 8 13 30.26 1025 10 16 0.00 0.00
8:53 am 08:53 Sunny 52 11.1 31 -0.6 45 45 E 6 9 30.27 1025 10 16 0.00 0.00
9:53 am 09:53 Sunny 55 12.8 30 -1.1 38 38 NE 12 19 30.29 1026 10 16 0.00 0.00
10:53 am 10:53 Sunny 57 13.9 29 -1.7 34 34 NE 9 15 30.29 1026 10 16 0.00 0.00
11:53 am 11:53 Sunny 58 14.4 28 -2.2 32 32 VRB 3 6 30.29 1026 10 16 0.00 0.00
12:53 pm 12:53 Sunny 62 16.7 31 -0.6 31 31 NE 9 15 30.27 1025 10 16 0.00 0.00
1:53 pm 13:53 Sunny 63 17.2 30 -1.1 29 29 N 8 13 30.25 1024 10 16 0.00 0.00
2:53 pm 14:53 Sunny 63 17.2 31 -0.6 30 30 ENE 10 17 30.22 1024 10 16 0.00 0.00
3:53 pm 15:53 Sunny 65 18.3 32 0 29 29 undefined N/A 30.22 1023 10 16 0.00 0.00
4:53 pm 16:53 Sunny 65 18.3 32 0 29 29 E 3 6 30.20 1023 10 16 0.00 0.00
5:53 pm 17:53 Sunny 65 18.3 33 0.6 31 31 NE 7 11 30.19 1022 10 16 0.00 0.00
6:53 pm 18:53 Sunny 62 16.7 34 1.1 35 35 E 5 7 30.17 1022 10 16 0.00 0.00
7:53 pm 19:53 Clear 57 13.9 46 7.8 67 67 Calm 30.19 1022 10 16 0.00 0.00
8:53 pm 20:53 Clear 54 12.2 42 5.6 64 64 Calm 30.22 1023 10 16 0.00 0.00
9:53 pm 21:53 Clear 51 10.6 45 7.2 80 80 SSE 3 6 30.24 1024 10 16 0.00 0.00
10:53 pm 22:53 Clear 51 10.6 44 6.7 77 77 Calm 30.24 1024 10 16 0.00 0.00
11:53 pm 23:53 Clear 49 9.4 45 7.2 86 86 Calm 30.23 1024 10 16 0.00 0.00

Powered by AerisWeather